Погода в Арлагуле

Россия / Курганская область     55°30′29″N   66°20′39″E
темп.,
°C
ветер,
м/с
пор.,
м/с
влажн.,
%
обл.,
%
осадки,
мм/ч
давл.,
гПа
погр.,
м
6 марта, сб
сб623:00−1юз81497100 2.3 999906
02:00−3сз71192100 1.1 998427
05:00−6з7139196 1.3 1003533
08:00−12з6139270 0.0 1007351
11:00−10з6108842 0.0 1009426
14:00−7зюз6108720 0.0 1010629
17:00−8зюз6118834 0.0 1010491
20:00−11юз5129223 0.0 1011235
7 марта, вс
вс723:00−12зюз5128912 0.0 1012250
02:00−14зюз479459 0.0 1012118
05:00−15юз339544 0.0 101421
08:00−14ю239494 0.0 101338
11:00−11ююв359297 0.0 1013249
14:00−8вюв4594100 0.1 1009337
17:00−8в6995100 2.1 1004505
20:00−8всв61095100 3.3 999425
8 марта, пн
пн823:00−9ссз71194100 6.5 999443
02:00−11зсз7139298 0.1 1003467
05:00−15зсз6129498 0.2 1008271
08:00−20з489823 0.0 1010130
11:00−15зюз589112 0.0 1012270
14:00−12юз6108597 0.0 1011489
17:00−10ююз6138899 0.0 1010708
20:00−9ююз71491100 0.3 1010661
9 марта, вт
вт923:00−9ююз71491100 0.4 1009618
02:00−9ююз81690100 0.1 1008603
05:00−8ююз81591100 0.2 1007556
08:00−8ююз81591100 0.1 1007608
11:00−7ююз81392100 0.2 1006623
14:00−5юз81392100 0.4 1005808
17:00−4юз61193100 1.0 1006679
20:00−8зюз598764 0.2 1008158
10 марта, ср
ср1023:00−11зюз488932 0.2 1010117
02:00−13зюз479039 0.0 101197
05:00−15з449068 0.0 101175
08:00−15зюз3492100 0.0 101174
11:00−12з4689100 0.0 1011268
14:00−10з358896 0.0 1011442
17:00−11з239197 0.0 101035
20:00−10зсз479596 0.1 1006197